Regional Weather Roundup
Issued by NWS Green Bay, WI

Home | Current Version | Previous Version | Graphics & Text | Print | Product List | Glossary Off
Versions: 1 2 3 4 5 6 7 8 9 10 11 12 13 14 15 16 17 18 19 20 21 22 23 24 25 26 27 28 29 30 31 32 33 34 35 36 37 38 39 40 41 42 43 44 45 46 47 48 49 50

000
ASUS43 KGRB 212010
RWRGRB

NORTH-CENTRAL AND NORTHEAST WISCONSIN REGIONAL WEATHER ROUNDUP
NATIONAL WEATHER SERVICE GREEN BAY WI
200 PM CST SAT JAN 21 2017

WIZ005-009-010>012-018-019-212100-
NORTH CENTRAL WISCONSIN

CITY           SKY/WX    TMP DP  RH WIND       PRES   REMARKS
IRONWOOD       CLOUDY    37  36  96 NE3       29.44S
MANITOWISH WTR RAIN      35  35 100 SW5       29.42R
ARBOR VITAE    CLOUDY    37  36  96 S3        29.42R FOG
EAGLE RIVER    CLOUDY    36  36 100 E9        29.41F FOG
LAND O LAKES   LGT RAIN  36  36 100 E8        29.44F VSB 1/2
RHINELANDER    CLOUDY    37  37 100 SE7       29.41F FOG
PHILLIPS       LGT RAIN  35  35 100 E5        29.39F
ANTIGO         FOG       34  34 100 E8        29.42F VSB 1/2
TOMAHAWK       RAIN      37  36  96 CALM      29.41F VSB 3/4
MERRILL        FOG       37  37 100 SE3         N/A  VSB 1
$$

WIZ013-073-212100-
NORTHEAST WISCONSIN

CITY           SKY/WX    TMP DP  RH WIND       PRES   REMARKS
IRON MOUNTAIN  FOG       35  34  96 E5        29.47F VSB 1/4
MARINETTE      NOT AVBL
OCONTO         CLOUDY    36  36  99 E7        29.45F VSB 1/4
$$

WIZ017-030-035>037-045-212100-
CENTRAL WISCONSIN

CITY           SKY/WX    TMP DP  RH WIND       PRES   REMARKS
MEDFORD        LGT RAIN  35  35 100 E5        29.39F VSB 1/4
WAUSAU         FOG       35  35 100 E6        29.40S VSB 1/4
MOSINEE        FOG       36  36 100 E9        29.41F VSB 1/8
MARSHFIELD     FOG       35  35 100 E6        29.38F VSB 1/4
WISC RAPIDS    FOG       37  37 100 CALM      29.42S VSB 1/4
STEVENS POINT  FOG       34  34 100 E6        29.42F VSB<1/4
WAUPACA        FOG       39  38  97 CALM      29.43R VSB 1/4
SHAWANO        FOG       37  36  96 NE3       29.44F VSB 1/4
CLINTONVILLE   FOG       36  36 100 NE7       29.43F VSB 1/4
WAUTOMA        LGT RAIN  37  37 100 NE5       29.42S VSB 1/2
$$

WIZ038-039-048-051-212100-
FOX VALLEY

CITY           SKY/WX    TMP DP  RH WIND       PRES   REMARKS
NWS GREEN BAY  FOG       37  37 100 NE8       29.43F VSB 1/4
APPLETON       FOG       37  37 100 NE6       29.40F VSB 1/8
OSHKOSH        FOG       38  38 100 CALM      29.41S VSB 1/4
FOND DU LAC    CLOUDY    44  41  89 S5        29.41S FOG
$$

WIZ022-050-052-212100-
EAST CENTRAL WISCONSIN

CITY           SKY/WX    TMP DP  RH WIND       PRES   REMARKS
EPHRAIM        FOG       37  37 100 E9        29.47F VSB<1/4
WASHINGTON ISL DRZL/FOG  37  37 100 E7        29.49F VSB 3/4
STURGEON BAY   LGT RAIN  39  39 100 E5        29.47F VSB 1/4
MANITOWOC      FOG       40  39  97 MISG      29.45F VSB<1/4
SHEBOYGAN      FOG       42  41  96 S8        29.43F VSB 1/4
$$

LMZ563-521-522-541>543-212100-
LAKESHORE

STATION/POSITION TIME  TEMP    WIND        PRES    VSBY  WAVE
                       AIR SEA DIR/SP/G                  HT/PER
                 (UTC) (F)     (DEG/KT/KT) (MB)    (MI)  (FT/S)
SHEBOYGAN LKSHOR 2000   39     180/  7/  7  997.2F
KEWAUNEE LKSHORE 1948   37      40/  4/  5  997.2F
NORTHPORT PIER   1940   35      70/  7/  8  999.3F
SISTER BAY LKSHO 1950   39     120/  8/ 13   N/A
MENOMINEE LKSHOR 1948           20/ 13/ 14  997.6
$$




USA.gov is the U.S. government's official web portal to all federal, state and local government web resources and services.